TimeCST,TemperatureF,Dew PointF,Humidity,Sea Level PressureIn,VisibilityMPH,Wind Direction,Wind SpeedMPH,Gust SpeedMPH,PrecipitationIn,Events,Conditions,WindDirDegrees,DateUTC
12:15 AM,33.8,33.8,100,29.95,10.0,Calm,Calm,-,N/A,,Clear,0,2012-12-19 06:15:00
12:35 AM,33.8,33.8,100,29.96,10.0,Calm,Calm,-,N/A,,Clear,0,2012-12-19 06:35:00
12:55 AM,33.8,33.8,100,29.96,10.0,Calm,Calm,-,N/A,,Clear,0,2012-12-19 06:55:00
1:15 AM,33.8,33.8,100,29.97,10.0,Calm,Calm,-,N/A,,Clear,0,2012-12-19 07:15:00
1:35 AM,33.8,33.8,100,29.97,10.0,Calm,Calm,-,N/A,,Clear,0,2012-12-19 07:35:00
1:55 AM,33.8,33.8,100,29.97,10.0,South,3.5,-,N/A,,Clear,170,2012-12-19 07:55:00
2:15 AM,33.8,33.8,100,29.97,10.0,Calm,Calm,-,N/A,,Clear,0,2012-12-19 08:15:00
2:35 AM,33.8,33.8,100,29.97,10.0,Calm,Calm,-,N/A,,Clear,0,2012-12-19 08:35:00
2:55 AM,35.6,33.8,93,29.97,10.0,Calm,Calm,-,N/A,,Clear,0,2012-12-19 08:55:00
3:15 AM,33.8,33.8,100,29.98,10.0,Calm,Calm,-,N/A,,Clear,0,2012-12-19 09:15:00
3:35 AM,33.8,33.8,100,29.97,10.0,Calm,Calm,-,N/A,,Clear,0,2012-12-19 09:35:00
3:55 AM,33.8,33.8,100,29.98,10.0,Calm,Calm,-,N/A,,Clear,0,2012-12-19 09:55:00
4:15 AM,33.8,32.0,93,29.98,10.0,Calm,Calm,-,N/A,,Clear,0,2012-12-19 10:15:00
4:35 AM,33.8,32.0,93,29.99,10.0,Calm,Calm,-,N/A,,Clear,0,2012-12-19 10:35:00
4:55 AM,32.0,30.2,93,30.00,10.0,Calm,Calm,-,N/A,,Clear,0,2012-12-19 10:55:00
5:15 AM,32.0,32.0,100,30.00,10.0,Calm,Calm,-,N/A,,Clear,0,2012-12-19 11:15:00
5:35 AM,33.8,32.0,93,30.00,10.0,Calm,Calm,-,N/A,,Clear,0,2012-12-19 11:35:00
5:55 AM,32.0,32.0,100,30.01,10.0,Calm,Calm,-,N/A,,Clear,0,2012-12-19 11:55:00
6:15 AM,32.0,32.0,100,30.02,10.0,Calm,Calm,-,N/A,,Clear,0,2012-12-19 12:15:00
6:35 AM,32.0,32.0,100,30.02,10.0,Calm,Calm,-,N/A,,Clear,0,2012-12-19 12:35:00
6:55 AM,30.2,30.2,100,30.03,10.0,Calm,Calm,-,N/A,,Clear,0,2012-12-19 12:55:00
7:15 AM,32.0,30.2,93,30.03,10.0,Calm,Calm,-,N/A,,Clear,0,2012-12-19 13:15:00
7:35 AM,35.6,33.8,93,30.03,10.0,Calm,Calm,-,N/A,,Clear,0,2012-12-19 13:35:00
7:55 AM,39.2,39.2,100,30.04,10.0,Calm,Calm,-,N/A,,Clear,0,2012-12-19 13:55:00
8:15 AM,42.8,42.8,100,30.05,10.0,Calm,Calm,-,N/A,,Clear,0,2012-12-19 14:15:00
8:35 AM,46.4,42.8,87,30.06,10.0,Calm,Calm,-,N/A,,Clear,0,2012-12-19 14:35:00
8:55 AM,48.2,44.6,87,30.06,10.0,Calm,Calm,-,N/A,,Clear,0,2012-12-19 14:55:00
9:15 AM,51.8,44.6,76,30.07,10.0,SSW,6.9,-,N/A,,Clear,210,2012-12-19 15:15:00
9:35 AM,51.8,44.6,76,30.06,10.0,South,5.8,-,N/A,,Clear,180,2012-12-19 15:35:00
9:55 AM,53.6,46.4,77,30.06,10.0,SSW,5.8,-,N/A,,Clear,200,2012-12-19 15:55:00
10:15 AM,53.6,46.4,77,30.05,10.0,South,5.8,-,N/A,,Clear,190,2012-12-19 16:15:00
10:35 AM,55.4,46.4,72,30.05,10.0,South,4.6,-,N/A,,Clear,190,2012-12-19 16:35:00
10:55 AM,55.4,46.4,72,30.04,10.0,SSE,4.6,-,N/A,,Clear,150,2012-12-19 16:55:00
11:15 AM,57.2,46.4,67,30.03,10.0,South,4.6,-,N/A,,Clear,170,2012-12-19 17:15:00
11:35 AM,57.2,46.4,67,30.02,10.0,Variable,3.5,-,N/A,,Clear,0,2012-12-19 17:35:00
11:55 AM,57.2,46.4,67,30.01,10.0,Variable,5.8,-,N/A,,Clear,0,2012-12-19 17:55:00
12:15 PM,59.0,48.2,67,30.00,10.0,South,5.8,-,N/A,,Clear,170,2012-12-19 18:15:00
12:35 PM,60.8,48.2,63,29.99,10.0,SSW,5.8,-,N/A,,Clear,200,2012-12-19 18:35:00
12:55 PM,62.6,50.0,63,29.99,10.0,South,5.8,-,N/A,,Clear,190,2012-12-19 18:55:00
1:15 PM,62.6,50.0,63,29.99,10.0,South,4.6,-,N/A,,Clear,190,2012-12-19 19:15:00
1:35 PM,62.6,50.0,63,29.98,10.0,SSW,6.9,-,N/A,,Clear,210,2012-12-19 19:35:00
1:55 PM,62.6,51.8,68,29.98,10.0,SSW,8.1,-,N/A,,Clear,210,2012-12-19 19:55:00
2:15 PM,64.4,51.8,64,29.98,10.0,SW,6.9,-,N/A,,Clear,220,2012-12-19 20:15:00
2:35 PM,64.4,51.8,64,29.98,10.0,SW,8.1,-,N/A,,Clear,220,2012-12-19 20:35:00
2:55 PM,64.4,51.8,64,29.98,10.0,SSW,4.6,-,N/A,,Clear,200,2012-12-19 20:55:00
3:15 PM,62.6,51.8,68,29.98,10.0,SSW,6.9,-,N/A,,Clear,210,2012-12-19 21:15:00
3:35 PM,62.6,51.8,68,29.98,10.0,SSW,4.6,-,N/A,,Clear,200,2012-12-19 21:35:00
3:55 PM,60.8,50.0,68,29.99,10.0,South,3.5,-,N/A,,Clear,190,2012-12-19 21:55:00
4:15 PM,57.2,50.0,77,29.98,10.0,South,3.5,-,N/A,,Clear,180,2012-12-19 22:15:00
4:35 PM,57.2,50.0,77,29.98,10.0,South,4.6,-,N/A,,Clear,170,2012-12-19 22:35:00
4:55 PM,55.4,48.2,77,29.98,10.0,South,4.6,-,N/A,,Clear,170,2012-12-19 22:55:00
5:15 PM,55.4,48.2,77,29.98,10.0,SSE,5.8,-,N/A,,Clear,160,2012-12-19 23:15:00
5:35 PM,55.4,48.2,77,29.98,10.0,SSE,5.8,-,N/A,,Clear,160,2012-12-19 23:35:00
5:55 PM,55.4,48.2,77,29.99,10.0,South,5.8,-,N/A,,Clear,170,2012-12-19 23:55:00
6:15 PM,55.4,48.2,77,29.99,10.0,South,5.8,-,N/A,,Clear,170,2012-12-20 00:15:00
6:35 PM,53.6,48.2,82,30.00,10.0,South,4.6,-,N/A,,Clear,170,2012-12-20 00:35:00
6:55 PM,48.2,46.4,93,30.00,10.0,Calm,Calm,-,N/A,,Clear,0,2012-12-20 00:55:00
7:15 PM,48.2,44.6,87,30.00,10.0,South,4.6,-,N/A,,Clear,170,2012-12-20 01:15:00
7:35 PM,53.6,46.4,77,29.99,10.0,South,5.8,-,N/A,,Clear,170,2012-12-20 01:35:00
7:55 PM,51.8,46.4,82,30.00,10.0,South,3.5,-,N/A,,Clear,190,2012-12-20 01:55:00
8:15 PM,51.8,46.4,82,30.00,10.0,South,5.8,-,N/A,,Clear,190,2012-12-20 02:15:00
8:35 PM,51.8,46.4,82,29.99,10.0,South,8.1,-,N/A,,Clear,170,2012-12-20 02:35:00
8:55 PM,53.6,48.2,82,29.98,10.0,South,6.9,-,N/A,,Clear,170,2012-12-20 02:55:00
9:15 PM,51.8,46.4,82,29.98,10.0,South,4.6,-,N/A,,Clear,190,2012-12-20 03:15:00
9:35 PM,51.8,46.4,82,29.98,10.0,South,4.6,-,N/A,,Clear,180,2012-12-20 03:35:00
9:55 PM,51.8,46.4,82,29.97,10.0,South,4.6,-,N/A,,Clear,180,2012-12-20 03:55:00
10:15 PM,53.6,48.2,82,29.96,10.0,South,9.2,-,N/A,,Clear,170,2012-12-20 04:15:00
10:35 PM,53.6,48.2,82,29.96,10.0,South,8.1,-,N/A,,Clear,170,2012-12-20 04:35:00
10:55 PM,53.6,48.2,82,29.95,10.0,SSE,9.2,-,N/A,,Clear,160,2012-12-20 04:55:00
11:15 PM,53.6,48.2,82,29.94,10.0,South,9.2,-,N/A,,Clear,170,2012-12-20 05:15:00
11:35 PM,53.6,48.2,82,29.93,10.0,South,10.4,-,N/A,,Clear,170,2012-12-20 05:35:00
11:55 PM,53.6,48.2,82,29.91,10.0,SSE,9.2,-,N/A,,Clear,160,2012-12-20 05:55:00